Radiation Dose at Monitoring Post of Fukushima Daini Nuclear Power Station
Date,Time,MP-1(microSv/h),MP-2(microSv/h),MP-3(microSv/h),MP-4(microSv/h),MP-5(microSv/h),MP-6(microSv/h),MP-7(microSv/h),Wind Direction,Wind Velocity(m/s),Rain
2017/05/28,00:00,0.369,0.223,0.381,0.349,0.322,0.184,0.139,-,CALM,No
2017/05/28,00:10,0.368,0.223,0.378,0.350,0.323,0.185,0.139,south,0.9,No
2017/05/28,00:20,0.370,0.223,0.380,0.351,0.320,0.186,0.139,south,0.7,No
2017/05/28,00:30,0.367,0.223,0.377,0.352,0.322,0.185,0.138,-,CALM,No
2017/05/28,00:40,0.370,0.223,0.380,0.350,0.321,0.186,0.139,south-southeast,0.9,No
2017/05/28,00:50,0.368,0.222,0.378,0.351,0.322,0.185,0.139,south,1.4,No
2017/05/28,01:00,0.371,0.222,0.381,0.349,0.322,0.186,0.139,south,1.5,No
2017/05/28,01:10,0.368,0.223,0.378,0.351,0.321,0.184,0.139,south-southeast,0.9,No
2017/05/28,01:20,0.371,0.222,0.381,0.350,0.322,0.185,0.140,-,CALM,No
2017/05/28,01:30,0.367,0.223,0.379,0.351,0.321,0.186,0.140,west,1.1,No
2017/05/28,01:40,0.370,0.224,0.380,0.349,0.323,0.185,0.140,west,1.1,No
2017/05/28,01:50,0.367,0.223,0.378,0.350,0.322,0.185,0.139,-,CALM,No
2017/05/28,02:00,0.370,0.225,0.380,0.351,0.322,0.186,0.139,-,CALM,No
2017/05/28,02:10,0.367,0.223,0.379,0.352,0.322,0.185,0.139,north,0.6,No
2017/05/28,02:20,0.372,0.223,0.378,0.351,0.322,0.185,0.139,-,CALM,No
2017/05/28,02:30,0.368,0.222,0.379,0.351,0.322,0.186,0.140,south,0.5,No
2017/05/28,02:40,0.371,0.224,0.378,0.350,0.324,0.185,0.139,-,CALM,No
2017/05/28,02:50,0.367,0.223,0.380,0.350,0.321,0.186,0.139,-,CALM,No
2017/05/28,03:00,0.371,0.224,0.377,0.351,0.322,0.185,0.139,-,CALM,No
2017/05/28,03:10,0.367,0.223,0.381,0.351,0.321,0.186,0.140,east-southeast,0.6,No
2017/05/28,03:20,0.369,0.224,0.378,0.350,0.323,0.186,0.140,south-southeast,0.7,No
2017/05/28,03:30,0.366,0.224,0.382,0.349,0.323,0.186,0.139,-,CALM,No
2017/05/28,03:40,0.372,0.223,0.378,0.350,0.324,0.185,0.138,north-northeast,0.6,No
2017/05/28,03:50,0.368,0.224,0.380,0.350,0.321,0.186,0.139,-,CALM,No
2017/05/28,04:00,0.371,0.223,0.378,0.351,0.323,0.185,0.139,north-northwest,0.8,No
2017/05/28,04:10,0.367,0.224,0.380,0.350,0.321,0.187,0.140,west-northwest,1.0,No
2017/05/28,04:20,0.372,0.223,0.379,0.350,0.325,0.185,0.139,north-northwest,2.6,No
2017/05/28,04:30,0.369,0.222,0.379,0.351,0.322,0.186,0.140,north-northwest,2.8,No
2017/05/28,04:40,0.372,0.223,0.378,0.350,0.323,0.185,0.140,north,3.0,No
2017/05/28,04:50,0.368,0.223,0.379,0.350,0.322,0.187,0.139,north,2.8,No
2017/05/28,05:00,0.371,0.224,0.380,0.353,0.323,0.186,0.140,north-northwest,1.9,No
2017/05/28,05:10,0.367,0.223,0.378,0.349,0.321,0.186,0.139,north-northwest,3.3,No
2017/05/28,05:20,0.369,0.222,0.381,0.353,0.323,0.185,0.139,north-northwest,3.1,No
2017/05/28,05:30,0.367,0.223,0.380,0.349,0.321,0.185,0.139,north,1.6,No
2017/05/28,05:40,0.371,0.223,0.381,0.351,0.324,0.186,0.140,north-northwest,1.2,No
2017/05/28,05:50,0.368,0.224,0.378,0.349,0.320,0.186,0.140,northwest,1.6,No
2017/05/28,06:00,0.369,0.223,0.381,0.352,0.323,0.185,0.140,northwest,0.8,No
2017/05/28,06:10,0.367,0.223,0.377,0.349,0.320,0.186,0.140,west-northwest,1.1,No
2017/05/28,06:20,0.370,0.222,0.378,0.352,0.322,0.185,0.140,-,CALM,No
2017/05/28,06:30,0.367,0.223,0.377,0.348,0.320,0.185,0.139,north-northwest,1.3,No
2017/05/28,06:40,0.370,0.223,0.380,0.350,0.323,0.185,0.140,north-northwest,3.3,No
2017/05/28,06:50,0.369,0.224,0.378,0.348,0.320,0.185,0.139,north-northwest,3.3,No
2017/05/28,07:00,0.370,0.224,0.379,0.352,0.323,0.185,0.140,north-northwest,3.3,No
2017/05/28,07:10,0.369,0.222,0.378,0.351,0.321,0.185,0.140,north,1.6,No
2017/05/28,07:20,0.369,0.224,0.380,0.352,0.324,0.186,0.141,north-northeast,0.8,No
2017/05/28,07:30,0.369,0.224,0.377,0.349,0.320,0.186,0.140,north-northwest,2.1,No
2017/05/28,07:40,0.368,0.223,0.380,0.351,0.322,0.186,0.140,north-northwest,1.4,No
2017/05/28,07:50,0.369,0.221,0.377,0.350,0.323,0.185,0.139,northwest,1.5,No
2017/05/28,08:00,0.367,0.223,0.379,0.347,0.320,0.186,0.139,northwest,0.9,No
2017/05/28,08:10,0.372,0.224,0.379,0.353,0.322,0.186,0.138,west-northwest,1.4,No
2017/05/28,08:20,0.370,0.222,0.376,0.349,0.320,0.186,0.138,north-northwest,1.1,No
2017/05/28,08:30,0.368,0.221,0.381,0.347,0.317,0.185,0.140,north,0.8,No
2017/05/28,08:40,0.369,0.224,0.378,0.345,0.318,0.185,0.138,northeast,1.4,No
2017/05/28,08:50,0.368,0.223,0.377,0.349,0.322,0.185,0.138,northeast,1.1,No
2017/05/28,09:00,0.365,0.221,0.379,0.350,0.323,0.184,0.139,east-northeast,1.9,No
2017/05/28,09:10,0.369,0.222,0.377,0.348,0.321,0.187,0.139,east-northeast,1.4,No
2017/05/28,09:20,0.368,0.223,0.379,0.349,0.319,0.184,0.140,northeast,1.6,No
2017/05/28,09:30,0.367,0.223,0.381,0.345,0.320,0.185,0.139,north-northeast,1.9,No
2017/05/28,09:40,0.365,0.222,0.377,0.350,0.323,0.186,0.139,east-northeast,1.4,No
2017/05/28,09:50,0.365,0.221,0.378,0.352,0.322,0.186,0.140,east-northeast,1.6,No
2017/05/28,10:00,0.372,0.221,0.381,0.349,0.321,0.185,0.139,north-northeast,1.1,No
2017/05/28,10:10,0.369,0.221,0.376,0.347,0.320,0.185,0.139,east,0.7,No
2017/05/28,10:20,0.366,0.223,0.376,0.348,0.318,0.185,0.138,-,CALM,No
2017/05/28,10:30,0.367,0.224,0.382,0.354,0.324,0.186,0.138,-,CALM,No
2017/05/28,10:40,0.371,0.221,0.378,0.353,0.323,0.185,0.140,south-southeast,1.4,No
2017/05/28,10:50,0.370,0.223,0.379,0.350,0.321,0.185,0.139,south,2.8,No
2017/05/28,11:00,0.369,0.222,0.381,0.352,0.324,0.186,0.139,south-southwest,1.0,No
2017/05/28,11:10,0.372,0.222,0.379,0.353,0.325,0.186,0.139,west-northwest,5.1,No
2017/05/28,11:20,0.370,0.224,0.376,0.350,0.322,0.185,0.139,west,3.0,No
2017/05/28,11:30,0.367,0.224,0.376,0.349,0.320,0.185,0.139,west-northwest,6.2,No
2017/05/28,11:40,0.366,0.222,0.376,0.348,0.320,0.186,0.138,northwest,4.8,No
2017/05/28,11:50,0.365,0.221,0.375,0.350,0.319,0.186,0.140,north-northwest,5.3,No
2017/05/28,12:00,0.368,0.222,0.376,0.349,0.321,0.185,0.140,northwest,7.3,No
2017/05/28,12:10,0.371,0.222,0.377,0.351,0.319,0.185,0.138,west-northwest,8.9,No
2017/05/28,12:20,0.371,0.221,0.378,0.351,0.321,0.186,0.140,west-northwest,10.1,No
2017/05/28,12:30,0.369,0.225,0.383,0.349,0.320,0.184,0.140,west-northwest,9.1,No
2017/05/28,12:40,0.366,0.225,0.384,0.350,0.321,0.186,0.141,west,8.2,No
2017/05/28,12:50,0.373,0.223,0.381,0.349,0.322,0.186,0.140,west-northwest,6.4,No
2017/05/28,13:00,0.373,0.223,0.381,0.350,0.322,0.185,0.141,northwest,7.2,No
2017/05/28,13:10,0.372,0.223,0.380,0.352,0.324,0.186,0.140,northwest,7.0,No
2017/05/28,13:20,0.369,0.222,0.379,0.352,0.323,0.187,0.139,northwest,8.4,No
2017/05/28,13:30,0.367,0.221,0.380,0.352,0.322,0.187,0.140,west-northwest,6.0,No
2017/05/28,13:40,0.369,0.222,0.380,0.353,0.323,0.187,0.141,west-northwest,8.7,No
2017/05/28,13:50,0.375,0.222,0.380,0.352,0.321,0.188,0.139,northwest,7.7,No
2017/05/28,14:00,0.374,0.222,0.380,0.352,0.322,0.187,0.140,north-northwest,8.6,No
2017/05/28,14:10,0.371,0.224,0.380,0.352,0.322,0.187,0.140,west-northwest,5.1,No
2017/05/28,14:20,0.367,0.226,0.380,0.351,0.321,0.188,0.140,west,6.7,No
2017/05/28,14:30,0.371,0.227,0.380,0.351,0.322,0.186,0.140,west-northwest,6.0,No
2017/05/28,14:40,0.374,0.225,0.381,0.352,0.323,0.186,0.142,northwest,8.3,No
2017/05/28,14:50,0.372,0.224,0.386,0.356,0.323,0.186,0.141,northwest,7.8,No
2017/05/28,15:00,0.372,0.226,0.383,0.355,0.329,0.189,0.140,west-northwest,7.8,No
2017/05/28,15:10,0.374,0.226,0.380,0.352,0.327,0.188,0.140,west-northwest,7.9,No
2017/05/28,15:20,0.375,0.224,0.385,0.358,0.324,0.188,0.141,northwest,7.1,No
2017/05/28,15:30,0.371,0.224,0.388,0.356,0.326,0.188,0.140,west-northwest,8.6,No
2017/05/28,15:40,0.375,0.226,0.383,0.354,0.326,0.188,0.140,west-northwest,7.9,No
2017/05/28,15:50,0.375,0.225,0.380,0.357,0.325,0.187,0.142,west-northwest,8.6,No
2017/05/28,16:00,0.371,0.224,0.380,0.356,0.323,0.187,0.142,west-northwest,8.4,No
2017/05/28,16:10,0.375,0.226,0.387,0.352,0.321,0.188,0.140,west-northwest,7.3,No
2017/05/28,16:20,0.373,0.225,0.382,0.356,0.321,0.187,0.142,west-northwest,5.5,No
2017/05/28,16:30,0.372,0.225,0.382,0.358,0.321,0.187,0.141,northwest,7.4,No
2017/05/28,16:40,0.374,0.227,0.386,0.353,0.321,0.189,0.141,northwest,8.5,No
2017/05/28,16:50,0.373,0.225,0.383,0.357,0.322,0.188,0.141,northwest,8.4,No
2017/05/28,17:00,0.371,0.226,0.385,0.356,0.323,0.187,0.141,northwest,8.2,No
2017/05/28,17:10,0.375,0.225,0.386,0.354,0.328,0.188,0.141,northwest,7.6,No
2017/05/28,17:20,0.375,0.224,0.382,0.356,0.327,0.188,0.142,northwest,7.2,No
2017/05/28,17:30,0.371,0.224,0.386,0.355,0.325,0.187,0.142,west-northwest,7.7,No
2017/05/28,17:40,0.375,0.225,0.386,0.356,0.322,0.187,0.142,west-northwest,6.8,No
2017/05/28,17:50,0.374,0.226,0.384,0.357,0.327,0.188,0.140,northwest,6.7,No
2017/05/28,18:00,0.375,0.224,0.386,0.355,0.327,0.188,0.141,northwest,7.0,No
2017/05/28,18:10,0.376,0.226,0.383,0.357,0.324,0.187,0.141,northwest,5.7,No
2017/05/28,18:20,0.373,0.225,0.386,0.354,0.327,0.188,0.141,northwest,3.5,No
2017/05/28,18:30,0.376,0.226,0.385,0.357,0.325,0.188,0.141,northwest,2.2,No
2017/05/28,18:40,0.374,0.224,0.385,0.355,0.328,0.187,0.141,north,1.4,No
2017/05/28,18:50,0.373,0.226,0.385,0.356,0.327,0.188,0.142,north-northwest,1.2,No
2017/05/28,19:00,0.376,0.227,0.384,0.355,0.325,0.187,0.141,northwest,1.3,No
2017/05/28,19:10,0.372,0.226,0.385,0.355,0.327,0.187,0.142,west,1.2,No
2017/05/28,19:20,0.375,0.225,0.384,0.356,0.324,0.188,0.141,-,CALM,No
2017/05/28,19:30,0.374,0.226,0.386,0.356,0.327,0.187,0.140,east-northeast,0.7,No
2017/05/28,19:40,0.376,0.225,0.386,0.357,0.324,0.188,0.141,west-southwest,1.3,No
2017/05/28,19:50,0.374,0.226,0.385,0.356,0.327,0.187,0.141,northwest,3.9,No
2017/05/28,20:00,0.376,0.225,0.383,0.357,0.324,0.188,0.141,northwest,3.8,No
2017/05/28,20:10,0.374,0.226,0.385,0.356,0.326,0.188,0.141,north-northwest,4.0,No
2017/05/28,20:20,0.375,0.226,0.382,0.356,0.325,0.188,0.141,north,5.0,No
2017/05/28,20:30,0.373,0.225,0.387,0.355,0.327,0.188,0.141,north-northwest,5.6,No
2017/05/28,20:40,0.378,0.225,0.385,0.356,0.326,0.188,0.142,northwest,5.3,No
2017/05/28,20:50,0.374,0.225,0.385,0.355,0.327,0.188,0.142,northwest,5.1,No
2017/05/28,21:00,0.376,0.225,0.384,0.358,0.324,0.187,0.142,northwest,4.4,No
2017/05/28,21:10,0.372,0.225,0.386,0.357,0.326,0.187,0.141,north-northwest,4.0,No
2017/05/28,21:20,0.376,0.225,0.385,0.357,0.325,0.188,0.142,north,3.1,No
2017/05/28,21:30,0.372,0.226,0.385,0.356,0.325,0.187,0.141,north,2.0,No
2017/05/28,21:40,0.376,0.225,0.385,0.356,0.325,0.188,0.141,north-northeast,1.1,No
2017/05/28,21:50,0.372,0.226,0.385,0.357,0.325,0.187,0.142,north,0.8,No
2017/05/28,22:00,0.376,0.225,0.386,0.356,0.326,0.188,0.143,north,1.3,No
2017/05/28,22:10,0.374,0.226,0.385,0.358,0.324,0.187,0.142,north-northeast,2.2,No
2017/05/28,22:20,0.375,0.225,0.386,0.355,0.326,0.187,0.142,north,1.8,No
2017/05/28,22:30,0.374,0.226,0.384,0.357,0.325,0.188,0.141,southwest,1.0,No
2017/05/28,22:40,0.376,0.226,0.386,0.356,0.326,0.186,0.142,southwest,1.4,No
2017/05/28,22:50,0.375,0.225,0.386,0.358,0.324,0.187,0.141,south-southwest,0.8,No
2017/05/28,23:00,0.376,0.226,0.385,0.355,0.325,0.188,0.142,southwest,2.3,No
2017/05/28,23:10,0.374,0.225,0.386,0.356,0.326,0.188,0.142,southwest,1.9,No
2017/05/28,23:20,0.373,0.225,0.385,0.358,0.324,0.188,0.142,southwest,1.4,No
2017/05/28,23:30,0.375,0.226,0.387,0.354,0.326,0.188,0.141,southwest,1.4,No
2017/05/28,23:40,0.374,0.226,0.384,0.358,0.325,0.187,0.142,west,2.0,No
2017/05/28,23:50,0.375,0.226,0.387,0.356,0.327,0.189,0.142,west,5.2,No
